Regional Weather Roundup
Issued by NWS Little Rock, AR

Home | Current Version | Previous Version | Text Only | Print | Product List | Glossary Off
Versions: 1 2 3 4 5 6 7 8 9 10 11 12 13 14 15 16 17 18 19 20 21 22 23 24 25 26 27 28 29 30 31 32 33 34 35 36 37 38 39 40 41 42 43 44 45 46 47 48 49

000
ASUS44 KLZK 240305
RWRLZK

WEATHER ROUNDUP FOR ARKANSAS
NATIONAL WEATHER SERVICE LITTLE ROCK AR
1000 PM CDT SAT MAY 23 2015

NOTE: "FAIR" INDICATES FEW OR NO CLOUDS BELOW 12,000 FEET WITH NO
SIGNIFICANT WEATHER AND/OR OBSTRUCTIONS TO VISIBILITY.

ARZ001-003-010-029-240400-
NORTHWEST ARKANSAS

CITY           SKY/WX    TMP DP  RH WIND       PRES   REMARKS
FAYETTEVILLE   CLOUDY    71  64  78 SE15G25   30.00S
FORT SMITH     CLOUDY    74  65  73 E10       29.98F
HARRISON       CLOUDY    67  61  81 SE12      30.08R
BENTONVILLE    CLOUDY    68  63  83 SE10G18   30.01S
ROGERS         LGT RAIN  68  63  84 SE13      30.02R
SILOAM SPGS    CLOUDY    68  61  77 SE13G22   29.99F
HIGHFILL       LGT RAIN  69  64  84 SE14      30.00R
$$

ARZ004-005-016-240400-
NORTH CENTRAL ARKANSAS

CITY           SKY/WX    TMP DP  RH WIND       PRES   REMARKS
BATESVILLE     MOCLDY    72  57  60 E8        30.11S
FLIPPIN        MOCLDY    70  59  68 SE5       30.07R
MTN HOME       CLOUDY    70  58  65 SE10      30.08F
$$

ARZ040-041-240400-
WEST CENTRAL ARKANSAS

CITY           SKY/WX    TMP DP  RH WIND       PRES   REMARKS
MENA           CLOUDY    77  70  78 SE10      30.02F
MOUNT IDA      CLOUDY    76  66  71 SE12      30.03S
$$

ARZ009-017-025-026-028-240400-
NORTHEAST ARKANSAS

CITY           SKY/WX    TMP DP  RH WIND       PRES   REMARKS
CORNING          N/A     68  61  77 E8        30.14F
JONESBORO      MOCLDY    67  60  78 E3        30.13R
NEWPORT        MOCLDY    72  63  73 E6        30.13S
WALNUT RIDGE   CLOUDY    70  57  64 E8        30.13F
BLYTHEVILLE    MOCLDY    70  61  73 SE6       30.15R
$$

ARZ022-023-033-042-044-240400-
CENTRAL ARKANSAS

CITY           SKY/WX    TMP DP  RH WIND       PRES   REMARKS
LITTLE ROCK    MOCLDY    73  64  73 SE6       30.08S
N LITTLE ROCK  MOCLDY    73  67  80 SE8       30.08S
JACKSONVILLE   PTCLDY    70  64  81 E5        30.08S
SEARCY         PTCLDY    72  62  71 E5        30.11F
HOT SPRINGS    MOCLDY    75  66  73 E8        30.07R
RUSSELLVILLE   CLOUDY    73  64  73 E8        30.06R
CLINTON        FAIR      66  64  94 CALM      30.10S
$$

ARZ036-240400-
EAST ARKANSAS

CITY           SKY/WX    TMP DP  RH WIND       PRES   REMARKS
WEST MEMPHIS   PTCLDY    73  60  63 SE6       30.12R
$$

ARZ050-053-066-070-073-240400-
SOUTHWEST ARKANSAS

CITY           SKY/WX    TMP DP  RH WIND       PRES   REMARKS
ARKADELPHIA    FAIR      74  71  90 CALM      30.06S
CAMDEN         CLOUDY    75  66  73 CALM      30.06S
TEXARKANA      CLOUDY    76  70  82 SE8       30.02S
EL DORADO      CLOUDY    75  68  78 E5        30.06S
DE QUEEN       CLOUDY    77  69  76 SE8       29.97F
$$

ARZ056-057-069-240400-
SOUTHEAST ARKANSAS

CITY           SKY/WX    TMP DP  RH WIND       PRES   REMARKS
PINE BLUFF     PTCLDY    73  66  78 E6        30.09R
STUTTGART      CLEAR     73  63  68 MISG      30.10S
MONTICELLO     MOCLDY    76  66  71 E5        30.09R

$$




USA.gov is the U.S. government's official web portal to all federal, state and local government web resources and services.